Time,TemperatureF,DewpointF,PressureIn,WindDirection,WindDirectionDegrees,WindSpeedMPH,WindSpeedGustMPH,Humidity,HourlyPrecipIn,Conditions,Clouds,dailyrainin,SoftwareType,DateUTC
2015-07-02 00:05:00,81.8,74.6,30.13,ESE,123,4.0,4.0,79,0.00,,,0.00,Wunderground PWS Mod,2015-07-02 04:05:00,
2015-07-02 00:10:00,81.7,74.9,30.13,ESE,123,3.0,4.0,80,0.00,,,0.00,Wunderground PWS Mod,2015-07-02 04:10:00,
2015-07-02 00:15:00,81.6,74.5,30.13,SE,124,4.0,4.0,79,0.00,,,0.00,Wunderground PWS Mod,2015-07-02 04:15:00,
2015-07-02 00:20:00,81.6,74.8,30.13,SE,124,4.0,6.0,80,0.00,,,0.00,Wunderground PWS Mod,2015-07-02 04:20:00,
2015-07-02 00:25:00,81.6,74.8,30.13,SE,124,3.0,6.0,80,0.00,,,0.00,Wunderground PWS Mod,2015-07-02 04:25:00,
2015-07-02 00:35:00,81.5,74.7,30.13,ESE,123,4.0,7.0,80,0.00,,,0.00,Wunderground PWS Mod,2015-07-02 04:35:00,
2015-07-02 00:40:00,81.6,75.2,30.13,ESE,123,4.0,5.0,81,0.00,,,0.00,Wunderground PWS Mod,2015-07-02 04:40:00,
2015-07-02 00:45:00,81.5,75.1,30.13,ESE,123,4.0,6.0,81,0.00,,,0.00,Wunderground PWS Mod,2015-07-02 04:45:00,
2015-07-02 00:50:00,81.5,74.7,30.12,ESE,123,4.0,4.0,80,0.00,,,0.00,Wunderground PWS Mod,2015-07-02 04:50:00,
2015-07-02 00:55:00,81.5,74.7,30.12,ESE,123,4.0,9.0,80,0.00,,,0.00,Wunderground PWS Mod,2015-07-02 04:55:00,
2015-07-02 01:05:00,81.4,74.6,30.11,ESE,122,4.0,4.0,80,0.00,,,0.00,Wunderground PWS Mod,2015-07-02 05:05:00,
2015-07-02 01:10:00,81.5,74.7,30.11,ESE,121,4.0,4.0,80,0.00,,,0.00,Wunderground PWS Mod,2015-07-02 05:10:00,
2015-07-02 01:15:00,81.5,74.7,30.11,ESE,122,5.0,5.0,80,0.00,,,0.00,Wunderground PWS Mod,2015-07-02 05:15:00,
2015-07-02 01:25:00,81.3,74.5,30.11,ESE,120,4.0,7.0,80,0.00,,,0.00,Wunderground PWS Mod,2015-07-02 05:25:00,
2015-07-02 01:30:00,81.4,74.6,30.11,ESE,120,4.0,4.0,80,0.00,,,0.00,Wunderground PWS Mod,2015-07-02 05:30:00,
2015-07-02 01:35:00,81.4,75.0,30.11,ESE,120,4.0,7.0,81,0.00,,,0.00,Wunderground PWS Mod,2015-07-02 05:35:00,
2015-07-02 01:40:00,81.3,74.9,30.11,ESE,120,2.0,5.0,81,0.00,,,0.00,Wunderground PWS Mod,2015-07-02 05:40:00,
2015-07-02 01:45:00,81.3,74.9,30.11,ESE,119,3.0,5.0,81,0.00,,,0.00,Wunderground PWS Mod,2015-07-02 05:45:00,
2015-07-02 01:55:00,81.2,74.8,30.10,ESE,119,3.0,3.0,81,0.00,,,0.00,Wunderground PWS Mod,2015-07-02 05:55:00,
2015-07-02 02:00:00,81.1,75.1,30.10,ESE,119,1.0,5.0,82,0.00,,,0.00,Wunderground PWS Mod,2015-07-02 06:00:00,
2015-07-02 02:05:00,81.1,75.1,30.10,ESE,119,2.0,4.0,82,0.00,,,0.00,Wunderground PWS Mod,2015-07-02 06:05:00,